Dewpoint
51 54 56 58 58 60 61 63 62 62 62 62 62 61 61 60 58 46 39 39 39 47 45 43 44 43 41 40 39 38 35 34 34 33 33 33 32 31 29 29 31 33 38 45 49
47 50 53 55 57 58 59 61 63 62 62 62 62 61 61 60 51 43 41 46 48 47 40 39 38 38 35 37 38 35 33 33 32 27 31 31 32 31 28 29 28 30 40 49 50
47 46 49 52 54 57 57 58 61 62 62 62 62 61 60 57 43 39 56 52 47 51 43 37 33 34 32 32 35 33 32 33 31 24 22 30 28 28 28 29 30 29 36 48 50
46 47 46 48 52 55 56 56 58 61 62 61 62 60 59 51 36 41 45 51 61 44 42 40 33 30 31 30 31 31 31 31 32 26 24 23 24 25 26 28 27 23 38 46 47
46 45 47 45 50 52 55 55 56 58 63 61 61 60 54 44 41 42 40 44 58 52 40 38 33 30 31 29 29 28 29 29 30 26 26 26 25 25 25 26 25 24 23 37 43
45 46 46 47 45 51 52 53 54 56 59 61 60 59 51 40 41 40 35 37 47 46 40 38 31 29 27 28 26 26 27 26 26 26 25 24 24 25 24 22 23 25 23 24 27
47 47 48 48 47 46 52 51 51 53 56 62 60 56 48 43 40 33 39 39 43 41 40 37 30 30 25 24 24 24 23 23 24 24 23 24 22 22 23 23 21 19 20 23 23
46 46 47 48 49 46 50 50 50 52 54 61 60 54 46 43 43 42 40 38 43 42 42 35 31 32 28 27 25 22 22 19 19 20 23 23 19 17 19 18 18 19 19 20 22
45 45 47 48 48 47 49 50 48 50 53 61 58 52 45 43 41 38 40 33 37 39 40 36 31 31 29 25 24 22 17 18 19 21 21 20 17 20 18 17 17 17 17 18 20
45 45 47 48 48 47 49 48 47 50 56 60 56 49 47 40 36 39 36 35 33 36 35 33 29 27 28 24 20 19 19 19 19 20 19 19 19 19 20 20 20 20 20 18 18
46 45 44 46 47 47 47 43 44 50 54 47 47 43 39 43 32 32 34 31 31 34 31 30 27 24 24 25 23 19 18 18 19 21 21 21 22 23 22 22 22 22 22 21 20
44 45 44 45 47 47 47 39 42 45 39 43 50 47 46 35 31 30 31 27 26 31 31 27 25 25 23 23 22 20 19 18 20 20 24 23 23 23 24 23 23 24 23 22 21
42 45 43 44 45 44 42 40 47 49 39 40 47 48 42 41 33 29 29 26 27 30 30 26 26 25 23 22 21 20 20 20 20 20 22 22 21 22 23 25 25 24 22 22 21
39 43 45 44 41 40 39 46 46 48 33 36 41 46 46 38 35 33 29 26 28 29 29 27 26 25 23 22 21 19 22 22 21 22 20 21 18 20 21 22 22 22 23 23 20
39 42 45 43 41 37 38 46 46 45 22 33 39 46 44 39 39 36 32 26 25 27 28 27 26 25 24 23 21 21 24 23 23 22 22 22 20 20 21 20 21 21 19 20 22
38 41 43 41 39 38 39 40 39 28 22 36 40 42 42 39 38 34 30 28 25 26 27 27 29 28 26 25 24 24 23 24 24 23 20 21 19 18 18 20 18 19 21 22 23
38 39 42 41 37 37 41 38 25 20 36 36 36 39 41 40 38 37 30 26 23 21 24 26 26 27 28 25 26 24 23 21 21 21 19 18 17 18 20 21 21 18 18 19 25
39 40 42 40 39 38 39 33 20 22 24 39 38 37 37 37 36 33 33 25 24 25 25 24 23 26 27 26 25 24 24 21 18 18 18 19 18 19 21 18 18 18 19 20 22
39 39 39 39 39 38 35 22 20 17 29 34 33 36 35 37 35 34 29 27 27 27 24 24 24 27 27 27 27 26 24 24 22 21 19 18 19 19 19 18 18 18 20 23 26
37 38 36 38 37 38 32 22 22 18 25 35 33 36 34 34 31 35 36 32 29 29 27 25 24 25 27 27 27 26 27 24 23 18 18 19 19 20 18 20 16 18 19 26 29
39 34 33 34 38 35 26 25 23 23 23 31 32 34 35 34 34 33 34 31 29 29 28 27 26 25 25 25 25 25 24 23 23 21 18 17 18 18 20 17 18 20 21 24 29
38 29 34 39 32 32 28 26 25 20 20 22 29 32 35 36 34 34 31 31 29 29 27 27 26 27 24 25 26 25 23 23 21 21 21 20 19 19 17 18 20 20 21 25 30
32 32 32 36 25 26 28 25 27 23 21 28 32 32 31 35 33 33 29 29 29 28 27 27 26 25 25 25 24 24 24 23 23 22 20 19 18 20 21 18 21 20 21 25 30
32 27 28 34 33 29 27 27 26 25 23 21 24 30 31 34 35 34 33 31 31 30 31 29 26 26 25 24 23 22 23 24 23 21 21 21 21 20 19 19 18 20 22 23 29
32 29 29 24 25 29 26 27 26 25 24 21 20 20 31 30 35 31 30 29 35 33 32 29 27 26 27 26 23 23 23 23 22 22 21 21 21 22 22 23 23 24 23 23 25
30 30 32 28 25 22 21 22 21 26 27 25 20 22 25 30 31 32 36 30 30 32 30 29 27 28 25 26 25 25 23 23 23 23 23 22 22 23 23 23 22 21 22 23 24
37 37 33 25 21 20 21 19 24 29 26 28 27 24 21 28 36 37 40 41 40 29 28 27 27 26 25 25 24 23 23 22 23 23 22 21 23 24 23 23 22 23 23 24 24
Wind_Speed
22 22 20 19 19 18 19 18 15 14 14 14 14 13 14 18 23 19 19 15 5 5 4 11 11 10 10 11 5 6 7 13 12 7 7 12 7 2 5 3 1 5 9 15 22
22 22 24 21 20 19 19 20 19 15 14 13 14 13 14 15 20 22 19 14 9 5 7 14 12 13 12 13 7 8 10 7 9 9 4 10 9 11 4 6 6 9 11 15 17
24 21 22 23 22 21 19 20 22 18 15 13 12 12 13 14 10 3 8 7 8 7 13 15 15 14 14 13 14 15 20 17 4 6 5 3 3 0 5 9 12 16 22 19 18
25 24 21 21 23 22 20 21 21 21 16 13 12 9 11 6 6 5 7 2 4 10 13 17 15 15 13 18 14 19 19 23 5 5 0 5 5 3 9 11 4 7 23 21 19
27 24 23 21 22 22 21 20 22 20 20 15 12 5 7 10 15 13 6 7 6 12 16 17 16 15 17 14 16 21 16 15 8 7 6 9 6 8 11 11 11 5 6 18 21
26 25 24 22 22 21 20 21 22 24 25 16 13 5 7 19 13 17 7 6 11 18 18 18 15 15 14 20 16 7 17 21 9 11 11 10 13 14 12 12 17 15 15 14 14
26 26 26 24 22 20 19 21 23 25 24 18 15 11 16 26 13 4 3 10 14 19 19 19 18 10 5 12 15 6 7 13 14 12 11 8 13 17 23 18 17 16 14 17 17
26 27 25 24 22 20 18 20 23 24 25 16 16 15 13 17 32 27 18 11 10 12 19 16 14 9 14 1 2 6 12 15 12 20 9 9 15 19 3 9 10 13 15 18 22
26 25 26 26 22 19 18 19 25 23 22 17 10 12 9 12 24 23 22 18 13 13 16 14 11 14 13 11 12 12 10 22 14 6 9 11 8 1 7 7 7 12 15 18 16
27 25 24 24 20 19 17 24 24 21 12 16 11 12 12 18 11 26 22 22 18 15 15 14 9 17 21 16 19 13 20 15 14 13 10 14 17 18 14 13 18 18 19 17 18
27 25 24 23 20 18 12 10 6 8 13 15 13 13 7 24 9 21 24 22 21 18 22 20 20 26 25 23 19 22 18 15 10 18 12 15 15 18 19 19 17 18 18 18 19
23 22 23 22 20 15 6 5 3 7 13 16 24 28 31 2 13 17 22 23 27 24 24 18 30 23 22 23 24 23 20 15 12 6 11 10 18 19 20 24 23 20 20 20 20
23 23 22 21 21 12 11 12 10 4 8 11 17 23 15 18 22 19 28 29 30 30 31 31 20 24 25 23 22 22 20 15 15 12 7 12 22 26 23 27 25 23 19 18 19
23 23 23 22 15 14 12 7 7 6 9 8 12 16 29 5 14 27 28 29 16 33 29 28 28 31 28 25 22 22 13 14 15 8 12 7 9 18 24 21 19 19 20 22 25
23 23 22 17 15 14 15 5 5 4 10 12 19 11 25 24 9 24 25 31 26 21 28 26 26 28 27 31 21 16 10 10 11 11 15 18 17 10 19 22 20 7 3 1 4
22 22 22 15 10 16 15 11 5 10 11 5 10 23 27 31 28 10 23 28 26 23 24 27 17 23 20 16 17 10 12 3 8 6 17 19 20 8 18 19 3 7 10 11 8
23 24 22 17 17 16 11 1 5 9 3 7 7 20 39 32 34 25 30 35 32 30 30 22 25 9 9 20 16 14 12 6 9 11 13 14 17 15 11 12 11 4 4 5 10
22 23 19 21 20 16 12 6 15 10 19 6 4 24 31 26 29 38 38 32 34 25 20 27 22 24 15 18 21 23 24 12 9 12 7 4 9 6 13 2 2 1 3 4 6
22 18 19 23 21 14 12 19 9 18 6 9 12 21 27 32 19 31 27 40 42 34 24 29 23 24 24 14 23 15 30 22 17 25 11 8 7 8 11 14 5 4 2 3 4
13 14 24 24 18 16 19 23 16 22 15 11 6 12 13 32 23 32 35 31 37 41 32 14 15 23 18 21 24 19 19 15 14 7 12 9 15 12 14 19 12 4 3 3 6
7 7 13 15 17 12 14 12 21 29 24 5 7 7 17 21 27 37 34 23 42 40 32 28 14 13 22 19 23 23 22 12 10 16 7 3 6 1 19 20 14 2 8 4 10
4 8 3 3 12 8 16 13 20 20 22 23 11 9 12 12 27 30 38 34 40 35 44 33 14 20 28 16 18 27 33 25 15 9 23 20 18 2 8 12 10 5 9 7 11
4 8 12 5 8 9 12 22 27 26 25 6 10 16 14 15 9 38 28 37 26 43 41 38 13 22 21 19 17 18 25 19 24 15 27 18 8 8 16 15 12 9 7 9 9
4 6 5 6 8 6 4 10 20 26 29 26 18 12 19 17 23 12 39 16 19 18 32 36 22 30 33 28 14 24 27 28 28 31 25 35 24 8 13 12 12 12 12 17 15
4 5 6 5 6 5 7 4 15 10 19 25 23 24 16 6 16 23 23 10 19 19 24 29 33 28 30 15 30 28 28 30 36 38 29 23 26 24 19 15 12 12 7 14 20
4 5 5 10 15 18 12 7 16 21 18 22 29 20 29 31 22 15 27 13 12 26 19 29 32 30 24 29 28 22 26 37 37 32 27 24 35 15 16 13 8 5 4 6 9
6 7 6 8 10 13 13 16 11 15 14 15 25 26 27 36 19 18 24 22 20 18 24 28 23 25 33 22 18 27 36 23 26 27 28 37 30 12 20 20 15 11 7 5 7
Wind_Direction
325 323 328 333 337 330 336 297 260 266 272 281 288 298 306 312 314 298 270 240 295 245 229 257 217 222 234 251 259 280 272 234 230 256 141 119 188 123 19 120 81 135 81 112 132
320 319 319 326 329 335 335 332 271 255 263 273 284 295 306 315 306 286 252 223 153 180 212 225 208 219 214 225 194 233 244 262 18 60 40 146 204 164 171 221 164 108 106 125 143
324 315 314 313 319 327 332 326 340 249 249 261 273 289 303 317 296 289 66 124 171 191 238 243 230 207 226 222 210 223 246 263 104 63 9 147 225 187 187 251 202 198 171 158 164
320 317 314 311 313 318 326 327 327 326 239 245 252 274 302 293 262 144 123 115 219 209 240 252 241 239 231 237 225 234 229 255 327 99 323 230 247 192 225 249 49 58 154 164 180
324 315 311 309 309 310 319 324 321 310 267 232 229 251 292 233 241 248 200 209 206 196 221 228 228 228 223 238 230 231 253 263 219 126 252 280 249 244 264 250 254 183 161 179 186
326 321 313 308 301 309 309 319 316 321 328 233 207 185 233 251 261 259 219 235 224 198 218 229 231 226 233 245 240 225 222 253 201 222 223 239 257 250 243 245 254 241 200 210 225
333 327 319 314 304 305 309 312 310 313 316 238 203 205 236 234 276 95 224 243 227 201 219 229 239 274 218 280 261 257 284 274 254 234 233 218 259 252 252 234 247 250 238 203 224
333 331 325 325 306 305 304 311 311 299 307 219 208 217 242 240 238 260 258 245 252 231 229 227 241 253 261 326 350 229 246 251 242 218 182 146 259 275 76 190 239 251 219 217 218
330 332 329 325 310 306 303 307 303 289 294 221 209 220 238 221 233 236 215 219 207 230 231 245 238 226 241 236 233 209 237 223 250 204 140 177 262 257 144 162 224 247 241 232 214
331 336 337 332 322 312 314 308 285 284 267 207 221 218 262 231 207 222 220 217 212 199 207 216 223 215 231 206 221 218 221 250 230 187 200 203 235 262 256 214 226 228 236 232 211
327 329 335 333 327 321 330 325 319 234 222 197 191 214 258 219 245 198 196 196 219 195 200 195 206 209 213 224 226 251 245 228 236 165 177 220 258 269 268 260 256 253 251 246 230
328 326 329 333 333 321 299 292 338 50 304 285 254 220 242 45 230 215 193 185 201 200 198 199 218 213 217 226 228 247 261 265 276 246 187 228 256 262 270 266 258 253 247 250 240
328 324 328 329 321 284 245 264 359 288 258 273 224 228 208 229 240 216 190 190 193 200 200 210 210 214 226 224 238 230 238 250 252 265 230 265 269 262 254 245 248 248 251 249 249
322 322 320 329 304 342 300 68 2 305 256 237 210 225 223 205 246 235 196 191 190 205 206 215 220 201 217 232 220 239 228 248 272 301 279 301 277 297 301 284 256 245 243 235 227
321 319 315 325 297 295 301 136 36 346 254 183 202 184 195 192 175 231 224 199 212 195 207 215 203 218 201 220 223 231 238 272 269 239 270 268 273 276 250 253 254 180 145 92 101
318 315 314 305 286 282 278 282 39 238 233 197 186 187 173 200 215 209 207 203 214 213 212 224 204 218 217 217 205 225 233 270 292 284 264 243 237 240 242 225 204 163 203 202 187
309 309 302 287 270 289 302 260 240 239 323 213 206 194 189 193 204 192 197 196 203 207 211 214 224 180 223 194 198 202 167 206 227 216 241 230 228 221 262 313 305 121 335 345 156
305 305 282 269 261 254 243 212 236 239 243 302 210 218 203 188 203 188 195 199 206 197 193 200 215 184 189 201 193 192 189 183 205 211 250 167 228 231 236 245 264 30 165 195 192
311 294 272 259 241 234 218 228 222 223 234 286 265 227 217 204 181 197 204 201 198 198 197 196 215 185 172 191 192 189 213 224 278 286 284 244 235 238 243 238 202 71 38 9 154
307 290 268 252 243 214 215 227 239 249 275 336 261 215 208 209 197 179 196 214 206 206 209 188 207 192 175 194 227 189 192 206 228 232 248 240 252 241 213 226 126 79 83 103 126
288 274 268 238 188 214 229 223 235 257 273 247 320 321 264 198 212 187 192 202 209 196 208 218 225 177 160 196 192 210 215 219 200 225 217 251 237 286 213 149 134 101 123 157 162
259 258 288 176 189 213 225 221 239 243 241 243 256 283 274 292 206 225 212 199 193 195 201 207 217 198 203 199 207 205 216 208 212 200 229 246 246 213 95 129 130 122 133 144 161
259 266 263 174 255 273 268 247 240 243 249 247 233 227 258 278 310 218 224 211 211 194 196 197 223 197 206 199 218 220 208 216 231 252 242 222 224 82 194 172 153 158 146 158 166
264 285 238 200 251 275 292 315 269 236 237 246 237 259 294 284 279 254 230 221 234 196 203 189 201 204 198 209 165 197 216 213 212 224 234 234 245 211 163 171 184 198 187 169 173
216 254 270 277 265 249 282 277 302 317 237 231 251 247 248 297 292 260 231 181 187 235 232 184 211 215 229 223 183 197 206 216 221 227 221 234 236 240 246 219 223 222 226 200 178
255 259 315 284 287 281 274 276 289 296 257 239 237 243 230 247 248 294 337 199 192 220 219 178 211 220 232 228 244 215 223 216 223 231 246 251 253 258 280 288 288 228 242 236 211
222 256 250 259 268 282 274 277 279 313 297 290 253 251 247 240 253 251 297 284 306 224 201 183 196 205 225 229 233 243 219 218 216 221 227 236 244 238 251 258 261 239 238 238 236